Weather History for KOSH - October, 2013

Change the Weather History Date:

Sunday, October 27, 2013

  Actual Average Record
Temperature  
Mean Temperature 42 °F -  
Max Temperature 54 °F 55 °F 77 °F (1948)
Min Temperature 32 °F 37 °F 17 °F (1976)
Degree Days  
Heating Degree Days 22    
Moisture  
Dew Point 28 °F    
Average Humidity 58    
Maximum Humidity 82    
Minimum Humidity 35    
Precipitation  
Precipitation 0.00 in - - ()
Sea Level Pressure  
Sea Level Pressure 29.97 in    
Wind  
Wind Speed 5 mph (SW)    
Max Wind Speed 15 mph    
Max Gust Speed 22 mph    
Visibility 10 miles    
Events      
Averages and records for this station are not official NWS values.
T = Trace of Precipitation, MM = Missing Value Source: NWS Daily Summary

Daily Weather History Graph

Daily Weather History Graph

Search for Another Location

Airport or City:

Trip Planner

Search our weather history database for the weather conditions in past years. The results will help you decide how hot, cold, wet, or windy it might be!

Date:

Astronomy

Oct. 27, 2013 Rise Set
Actual Time 7:24 AM CDT 5:51 PM CDT
Civil Twilight 6:54 AM CDT 6:20 PM CDT
Nautical Twilight 6:20 AM CDT 6:54 PM CDT
Astronomical Twilight 5:47 AM CDT 7:27 PM CDT
Moon 12:07 AM CDT (10/27) 2:12 PM CDT (10/27)
Length of Visible Light 11h 26m
Length of Day
10h 26m
Last Quarter, 43% of the Moon is Illuminated
Oct 27
Last Quarter
Nov 3
New
Nov 9
First Quarter
Nov 17
Full
Nov 25
Last Quarter

Hourly Weather History & Observations

Time (CDT) Temp. Windchill Dew Point Humidity Pressure Visibility Wind Dir Wind Speed Gust Speed Precip Events Conditions
12:53 AM 41.0 °F - 30.0 °F 65% 30.03 in 10.0 mi Calm Calm - N/A   Overcast
1:53 AM 39.9 °F - 30.0 °F 68% 30.01 in 10.0 mi Calm Calm - N/A   Overcast
2:53 AM 39.0 °F 36.8 °F 28.9 °F 67% 30.01 in 10.0 mi WSW 3.5 mph - N/A   Mostly Cloudy
3:53 AM 36.0 °F 33.3 °F 28.0 °F 73% 30.00 in 10.0 mi WSW 3.5 mph - N/A   Clear
4:53 AM 35.1 °F 31.0 °F 27.0 °F 72% 29.99 in 10.0 mi WSW 4.6 mph - N/A   Clear
5:53 AM 34.0 °F 29.8 °F 27.0 °F 75% 30.00 in 10.0 mi WSW 4.6 mph - N/A   Clear
6:53 AM 34.0 °F 31.0 °F 27.0 °F 75% 30.00 in 10.0 mi SW 3.5 mph - N/A   Clear
7:53 AM 32.0 °F 27.5 °F 27.0 °F 82% 30.00 in 10.0 mi SSW 4.6 mph - N/A   Clear
8:53 AM 37.9 °F 34.4 °F 28.0 °F 68% 30.00 in 10.0 mi SSW 4.6 mph - N/A   Clear
9:53 AM 42.1 °F 37.7 °F 28.9 °F 60% 29.99 in 10.0 mi Variable 6.9 mph 16.1 mph N/A   Clear
10:53 AM 44.1 °F 38.1 °F 28.0 °F 53% 29.98 in 10.0 mi WSW 11.5 mph 17.3 mph N/A   Clear
11:53 AM 46.9 °F - 28.9 °F 50% 29.95 in 10.0 mi WSW 9.2 mph 16.1 mph N/A   Clear
12:53 PM 48.9 °F - 28.0 °F 44% 29.91 in 10.0 mi SW 10.4 mph 19.6 mph N/A   Clear
1:53 PM 51.1 °F - 28.0 °F 41% 29.89 in 10.0 mi SW 13.8 mph - N/A   Clear
2:53 PM 52.0 °F - 27.0 °F 38% 29.88 in 10.0 mi SW 12.7 mph 21.9 mph N/A   Clear
3:53 PM 53.1 °F - 27.0 °F 37% 29.88 in 10.0 mi SSW 15.0 mph 19.6 mph N/A   Clear
4:53 PM 53.1 °F - 26.1 °F 35% 29.87 in 10.0 mi SSW 6.9 mph 17.3 mph N/A   Clear
5:53 PM 50.0 °F - 27.0 °F 41% 29.89 in 10.0 mi SSW 5.8 mph - N/A   Clear
6:53 PM 45.0 °F - 28.0 °F 52% 29.93 in 10.0 mi Calm Calm - N/A   Clear
7:53 PM 44.1 °F 42.5 °F 28.0 °F 53% 29.96 in 10.0 mi SSW 3.5 mph - N/A   Clear
8:53 PM 44.1 °F 42.5 °F 28.0 °F 53% 29.98 in 10.0 mi SW 3.5 mph - N/A   Clear
9:53 PM 43.0 °F 40.3 °F 28.0 °F 56% 29.99 in 10.0 mi SSW 4.6 mph - N/A   Clear
10:53 PM 44.1 °F 39.5 °F 28.9 °F 55% 30.04 in 10.0 mi NW 8.1 mph 18.4 mph N/A   Clear
11:53 PM 39.9 °F 34.5 °F 30.0 °F 68% 30.08 in 10.0 mi North 8.1 mph - N/A   Clear